Terug naar catalogus

THOR ABLESTAR DEB

ActiefLEO
NORAD 324·DEBRIS·🇺🇸 United States

Gelanceerd Jun 29, 1961 vanaf Cape Canaveral Space Force Station

Loading…

Volgende Passages (komende 24 uur)

TLE

VersSource: Space-Track

Epoch: Sep 14, 2026, 03:39 UTC

1 00324U 61015DA  26257.15275293  .00000470  00000-0  28571-3 0  9995
2 00324  66.8699 166.1015 0071522 317.3332  42.2217 14.13475534335640

Volg THOR ABLESTAR DEB in realtime met AllMySat

Download on the App Store